"Pseudo-MPEC" for P10NIJB

Created 2019 May 16 15:07:17 UT using Find_Orb

Click here for an explanation of pseudo-MPECs

 
 Astrometry: 
     P10NIJB  C2019 05 09cWp162X`vym\2q8PYGH]-_AstrometryIqehq`Bredacted;Zq9EF51
     P10NIJB  C2019 05 09a%#HV#olif*iqdkclick?!K';ux=p@9here*lRPS2Sfor!B0q47rF51
     P10NIJB  C2019 05 09C.6h(8n/SC-3`W-yby,8SrET:0%(dqaexplanation%7P-ODp\gXF51

Station data:
(F51) Pan-STARRS 1, Haleakala  (N20.707235 W156.255910)  US/Hawaii.
   Observers N. Primak, A. Schultz, S. Watters, J. Thiel, T. Goggia. Measurer
   PS1 Science Consortium. 1.8-m Ritchey-Chrétien + CCD.

Orbital elements:  P10NIJB
   Perihelion 2019 Jun 9.271965 +/- 43.2 TT =  6:31:37 (JD 2458643.771965)
Epoch 2019 May  9.0 TT = JDT 2458612.5   Earth MOID: 0.0244   AutoNEOCP
M 332.87491009 +/- 22               (J2000 ecliptic)
n   0.86739319 +/- 0.396            Peri.  205.38905 +/- 60
a   1.08891014 +/- 0.332            Node    52.72490 +/- 42
e   0.0529648 +/- 0.267             Incl.    5.45861 +/- 10
P   1.14/415.03d           H 28.3   G  0.15   U 12.1  SR
q 1.03123621 +/- 0.204    Q 1.14658407 +/- 32.9
From 3 observations 2019 May 9 (35.3 min); mean residual 0".10
Residuals in arcseconds: 
190509 F51  .08+  .07+    190509 F51  .15-  .13-    190509 F51  .08+  .07+    

Ephemerides (geocentric):
Date (UTC) HH   RA              Dec         delta   r     elong  mag " sig PA
---- -- -- --  -------------   -----------  ------ ------ -----  --- ---- ---
2019 05 16 15  15 41 58.429   -30 30 11.85  .02471 1.0353 168.3 21.0  62d   1
2019 05 16 16  15 41 55.165   -30 40 17.67  .02470 1.0352 168.2 21.0  62d   1
2019 05 16 17  15 41 51.886   -30 50 23.98  .02469 1.0352 168.0 21.1  62d   1
2019 05 16 18  15 41 48.594   -31 00 30.76  .02468 1.0352 167.9 21.1  62d   1
2019 05 16 19  15 41 45.287   -31 10 37.99  .02467 1.0352 167.7 21.1  62d   1
2019 05 16 20  15 41 41.965   -31 20 45.66  .02466 1.0352 167.6 21.1  62d   1
2019 05 16 21  15 41 38.629   -31 30 53.77  .02465 1.0352 167.4 21.1  62d   1
2019 05 16 22  15 41 35.278   -31 41 02.31  .02464 1.0352 167.3 21.1  62d   1
2019 05 16 23  15 41 31.912   -31 51 11.25  .02463 1.0351 167.1 21.1  62d   1
2019 05 17 00  15 41 28.531   -32 01 20.59  .02462 1.0351 167.0 21.1  62d   2
2019 05 17 01  15 41 25.135   -32 11 30.32  .02461 1.0351 166.8 21.1  62d   2
2019 05 17 02  15 41 21.725   -32 21 40.42  .02461 1.0351 166.7 21.1  62d   2
2019 05 17 03  15 41 18.299   -32 31 50.88  .02460 1.0351 166.5 21.1  61d   2
2019 05 17 04  15 41 14.857   -32 42 01.70  .02459 1.0351 166.4 21.1  61d   2
2019 05 17 05  15 41 11.401   -32 52 12.85  .02458 1.0351 166.2 21.1  61d   2
2019 05 17 06  15 41 07.929   -33 02 24.34  .02457 1.0350 166.1 21.1  61d   2
2019 05 17 07  15 41 04.441   -33 12 36.13  .02457 1.0350 165.9 21.1  61d   2
2019 05 17 08  15 41 00.938   -33 22 48.23  .02456 1.0350 165.8 21.1  61d   2
2019 05 17 09  15 40 57.419   -33 33 00.62  .02455 1.0350 165.6 21.1  61d   2
2019 05 17 10  15 40 53.885   -33 43 13.29  .02454 1.0350 165.5 21.1  61d   2
2019 05 17 11  15 40 50.334   -33 53 26.22  .02454 1.0350 165.3 21.1  61d   2
2019 05 17 12  15 40 46.767   -34 03 39.40  .02453 1.0350 165.1 21.1  61d   2
2019 05 17 13  15 40 43.184   -34 13 52.83  .02453 1.0349 165.0 21.1  61d   2
2019 05 17 14  15 40 39.585   -34 24 06.49  .02452 1.0349 164.8 21.2  61d   2
2019 05 17 15  15 40 35.970   -34 34 20.36  .02451 1.0349 164.7 21.2  61d   2
2019 05 17 16  15 40 32.338   -34 44 34.44  .02451 1.0349 164.5 21.2  61d   3
2019 05 17 17  15 40 28.689   -34 54 48.71  .02450 1.0349 164.4 21.2  60d   3
2019 05 17 18  15 40 25.024   -35 05 03.16  .02450 1.0349 164.2 21.2  60d   3
2019 05 17 19  15 40 21.343   -35 15 17.78  .02449 1.0349 164.0 21.2  60d   3
2019 05 17 20  15 40 17.644   -35 25 32.56  .02449 1.0349 163.9 21.2  60d   3
2019 05 17 21  15 40 13.928   -35 35 47.47  .02449 1.0348 163.7 21.2  60d   3
2019 05 17 22  15 40 10.195   -35 46 02.52  .02448 1.0348 163.6 21.2  60d   3
2019 05 17 23  15 40 06.445   -35 56 17.68  .02448 1.0348 163.4 21.2  60d   3
2019 05 18 00  15 40 02.678   -36 06 32.95  .02447 1.0348 163.3 21.2  60d   3
2019 05 18 01  15 39 58.894   -36 16 48.31  .02447 1.0348 163.1 21.2  60d   3
2019 05 18 02  15 39 55.091   -36 27 03.75  .02447 1.0348 162.9 21.2  60d   3
2019 05 18 03  15 39 51.271   -36 37 19.26  .02446 1.0348 162.8 21.2  59d   3
2019 05 18 04  15 39 47.434   -36 47 34.83  .02446 1.0347 162.6 21.2  59d   3
2019 05 18 05  15 39 43.578   -36 57 50.43  .02446 1.0347 162.5 21.2  59d   4
2019 05 18 06  15 39 39.705   -37 08 06.07  .02446 1.0347 162.3 21.2  59d   4
2019 05 18 07  15 39 35.813   -37 18 21.73  .02446 1.0347 162.1 21.2  59d   4
2019 05 18 08  15 39 31.904   -37 28 37.39  .02445 1.0347 162.0 21.2  59d   4
2019 05 18 09  15 39 27.975   -37 38 53.04  .02445 1.0347 161.8 21.2  59d   4
2019 05 18 10  15 39 24.029   -37 49 08.67  .02445 1.0347 161.7 21.2  59d   4
2019 05 18 11  15 39 20.064   -37 59 24.27  .02445 1.0346 161.5 21.3  58d   4
2019 05 18 12  15 39 16.080   -38 09 39.82  .02445 1.0346 161.3 21.3  58d   4
2019 05 18 13  15 39 12.077   -38 19 55.32  .02445 1.0346 161.2 21.3  58d   4
2019 05 18 14  15 39 08.055   -38 30 10.75  .02445 1.0346 161.0 21.3  58d   4